User: anonymous   Login
Location: Vallejo Observatory
(38.1221°N, 122.2109°W)
Time: 06:31:38
(UTC-08:00)
Language:

MOS 1 Rocket - Orbit

View from above orbital plane
View from above orbital plane
View from above satellite
View from above satellite

Ground track
Ground track

The orbit data is extracted from the following two-line orbital elements,

1 17528U 87018B   14331.82817479  .00000628  00000-0  14894-3 0  5345
2 17528 097.4446 022.5070 0152693 340.9861 145.3005 14.50167109464716
Epoch (UTC): 27 November 2014 19:52:34
Eccentricity: 0.0152693
inclination: 97.4446°
perigee height: 616 km
apogee height: 833 km
right ascension of ascending node: 22.5070°
argument of perigee: 340.9861°
revolutions per day: 14.50167109
mean anomaly at epoch: 145.3005°
orbit number at epoch: 46471

The dashed part of the orbit path shows where the satellite is in the earth's shadow,  

DLR